DO5DHA-11 Weather Reports


Display with metric or nautical units.
time (UTC)temp
F
wind
direction
speed
MPH
gust
MPH
rain 1hr
in
rain 24hr
in
rain mn
in
humidity
%
barometer
mb
20260507112906 55 225 0.0 0.0 0.00 0.00 0.00 74 1013.7
20260507112406 55 225 0.0 0.0 0.00 0.00 0.00 73 1013.7
20260507111906 55 225 0.0 0.0 0.00 0.00 0.00 73 1013.7
20260507111406 55 202 0.0 0.0 0.00 0.00 0.00 73 1013.7
20260507110906 55 225 0.0 0.0 0.00 0.00 0.00 73 1013.7
20260507110406 55 225 0.0 0.0 0.00 0.00 0.00 73 1013.7
20260507105906 55 225 0.0 0.0 0.00 0.00 0.00 73 1013.7
20260507105406 55 225 0.0 0.0 0.00 0.00 0.00 74 1013.7
20260507104906 55 225 0.0 0.0 0.00 0.00 0.00 74 1013.5
20260507104406 55 225 0.0 0.0 0.00 0.00 0.00 74 1013.5
20260507103906 55 225 0.0 0.0 0.00 0.00 0.00 75 1013.7
20260507103406 55 225 0.0 0.0 0.00 0.00 0.00 75 1013.7
20260507102906 55 225 0.0 0.0 0.00 0.00 0.00 75 1013.7
20260507102406 54 225 0.0 0.0 0.00 0.00 0.00 75 1013.9
20260507101906 54 225 0.0 0.0 0.00 0.00 0.00 75 1013.7
20260507101406 54 225 0.0 0.0 0.00 0.00 0.00 75 1013.5
20260507100906 54 202 0.0 0.0 0.00 0.00 0.00 75 1013.5
20260507100406 54 180 0.0 0.0 0.00 0.00 0.00 76 1013.5
20260507095906 54 180 0.0 0.0 0.00 0.00 0.00 75 1013.5
20260507095406 54 180 0.0 0.0 0.00 0.00 0.00 75 1013.7
20260507094906 54 180 0.0 0.0 0.00 0.00 0.00 76 1013.5
20260507094406 53 180 0.0 0.0 0.00 0.00 0.00 76 1013.5
20260507093906 53 180 0.0 0.0 0.00 0.00 0.00 76 1013.4
20260507093406 53 180 0.0 0.0 0.00 0.00 0.00 76 1013.5
20260507092906 53 180 0.0 0.0 0.00 0.00 0.00 77 1013.5
20260507092406 53 180 0.0 0.0 0.00 0.00 0.00 77 1013.5
20260507091906 53 202 5.0 0.0 0.00 0.00 0.00 78 1013.4
20260507091406 53 180 0.0 0.0 0.00 0.00 0.00 78 1013.2
20260507090906 52 180 0.0 0.0 0.00 0.00 0.00 78 1013.2
20260507090406 52 180 0.0 0.0 0.00 0.00 0.00 78 1013.2
20260507085906 52 180 0.0 0.0 0.00 0.00 0.00 78 1013.0
20260507085406 52 180 0.0 0.0 0.00 0.00 0.00 78 1013.0
20260507084906 52 180 0.0 0.0 0.00 0.00 0.00 78 1013.0
20260507084406 52 180 0.0 0.0 0.00 0.00 0.00 78 1013.0
20260507083906 52 180 0.0 0.0 0.00 0.00 0.00 78 1013.0
20260507083406 52 202 0.0 0.0 0.00 0.00 0.00 78 1013.0
20260507082906 52 202 0.0 0.0 0.00 0.00 0.00 78 1013.0
20260507082406 52 202 0.0 0.0 0.00 0.00 0.00 78 1013.0
20260507081906 52 202 0.0 0.0 0.00 0.00 0.00 78 1013.0
20260507081406 52 202 0.0 0.0 0.00 0.00 0.00 78 1013.0
20260507080906 52 202 0.0 0.0 0.00 0.00 0.00 78 1013.0
20260507080406 52 202 0.0 0.0 0.00 0.00 0.00 78 1012.7
20260507075906 52 202 0.0 0.0 0.00 0.00 0.00 78 1012.7
20260507075406 52 202 0.0 0.0 0.00 0.00 0.00 79 1012.7
20260507074906 52 180 0.0 0.0 0.00 0.00 0.00 79 1012.7
20260507074406 52 180 0.0 0.0 0.00 0.00 0.00 79 1012.7
20260507073906 52 180 0.0 0.0 0.00 0.00 0.00 79 1012.7
20260507073406 52 180 0.0 0.0 0.00 0.00 0.00 79 1012.7
20260507072906 52 180 0.0 0.0 0.00 0.00 0.00 79 1012.7
20260507072406 51 180 0.0 0.0 0.00 0.00 0.00 78 1012.7
20260507071906 51 180 0.0 0.0 0.00 0.00 0.00 78 1012.5
20260507071406 52 180 0.0 0.0 0.00 0.00 0.00 78 1012.4
20260507070906 51 180 0.0 0.0 0.00 0.00 0.00 78 1012.4
20260507070406 51 180 0.0 0.0 0.00 0.00 0.00 79 1012.4
20260507065906 51 180 0.0 0.0 0.00 0.00 0.00 79 1012.4
20260507065406 51 180 0.0 0.0 0.00 0.00 0.00 79 1012.2
20260507064906 51 180 0.0 0.0 0.00 0.00 0.00 79 1012.2
20260507064406 51 180 0.0 0.0 0.00 0.00 0.00 79 1012.2
20260507064000 51 180 0.0 0.0 0.00 0.00 0.00 79 1012.4
20260507063406 51 180 0.0 0.0 0.00 0.00 0.00 79 1012.2
20260507062906 51 180 0.0 0.0 0.00 0.00 0.00 79 1012.2
20260507062406 51 180 0.0 0.0 0.00 0.00 0.00 79 1012.2
20260507061906 51 180 0.0 0.0 0.00 0.00 0.00 79 1012.0
20260507061406 51 180 0.0 0.0 0.00 0.00 0.00 79 1012.2
20260507060906 51 180 0.0 0.0 0.00 0.00 0.00 79 1011.9
20260507060406 51 180 0.0 0.0 0.00 0.00 0.00 79 1012.0
20260507055906 51 180 0.0 0.0 0.00 0.00 0.00 79 1012.0
20260507055406 51 157 0.0 0.0 0.00 0.00 0.00 79 1012.0
20260507054906 51 157 0.0 0.0 0.00 0.00 0.00 79 1011.9
20260507054406 51 157 0.0 0.0 0.00 0.00 0.00 79 1011.9
20260507053906 51 157 0.0 0.0 0.00 0.00 0.00 79 1011.7
20260507053406 51 157 0.0 0.0 0.00 0.00 0.00 79 1011.7
20260507052906 51 157 0.0 0.0 0.00 0.00 0.00 80 1011.5
20260507052406 51 135 0.0 0.0 0.00 0.00 0.00 80 1011.7
20260507051906 51 135 0.0 0.0 0.00 0.00 0.00 80 1011.7
20260507051406 51 135 0.0 0.0 0.00 0.00 0.00 80 1011.5
20260507050906 51 0 46.0 0.0 0.00 0.00 0.00 80 1011.5
20260507050406 51 135 0.0 0.0 0.00 0.00 0.00 80 1011.5
20260507045906 51 135 0.0 0.0 0.00 0.00 0.00 80 1011.4
20260507045406 51 135 0.0 0.0 0.00 0.00 0.00 80 1011.2
20260507044906 51 135 0.0 0.0 0.00 0.00 0.00 79 1011.2
20260507044406 51 135 0.0 0.0 0.00 0.00 0.00 80 1011.0
20260507043906 51 135 0.0 0.0 0.00 0.00 0.00 80 1011.0
20260507043406 51 135 0.0 0.0 0.00 0.00 0.00 79 1011.0
20260507042906 51 135 0.0 0.0 0.00 0.00 0.00 79 1010.9
20260507042406 51 135 0.0 0.0 0.00 0.00 0.00 79 1010.7
20260507041906 51 135 0.0 0.0 0.00 0.00 0.00 79 1010.9
20260507041406 51 135 0.0 0.0 0.00 0.00 0.00 79 1010.7
20260507040906 51 135 0.0 0.0 0.00 0.00 0.00 79 1010.7
20260507040406 51 135 0.0 0.0 0.00 0.00 0.00 79 1010.7
20260507035906 51 135 0.0 0.0 0.00 0.00 0.00 79 1010.5
20260507035406 51 135 0.0 0.0 0.00 0.00 0.00 79 1010.5
20260507034906 51 135 0.0 0.0 0.00 0.00 0.00 79 1010.5
20260507034406 51 112 0.0 0.0 0.00 0.00 0.00 79 1010.4
20260507033906 51 112 0.0 0.0 0.00 0.00 0.00 79 1010.4
20260507033406 51 135 0.0 0.0 0.00 0.00 0.00 79 1010.5
20260507032905 51 135 0.0 0.0 0.00 0.00 0.00 79 1010.5
20260507032406 51 135 0.0 0.0 0.00 0.00 0.00 79 1010.5
20260507031906 51 135 0.0 0.0 0.00 0.00 0.00 79 1010.5
20260507031406 51 135 0.0 0.0 0.00 0.00 0.00 78 1010.5
20260507030906 51 135 0.0 0.0 0.00 0.00 0.00 78 1010.4
20260507030406 51 135 0.0 0.0 0.00 0.00 0.00 78 1010.2
20260507025905 51 135 0.0 0.0 0.00 0.00 0.00 78 1010.2
20260507025406 51 180 0.0 0.0 0.00 0.00 0.00 78 1010.2
20260507024906 51 180 0.0 0.0 0.00 0.00 0.00 78 1010.2
20260507024406 51 180 0.0 0.0 0.00 0.00 0.00 78 1010.4
20260507023906 51 180 0.0 0.0 0.00 0.00 0.00 78 1010.2
20260507023406 51 180 0.0 0.0 0.00 0.00 0.00 78 1010.2
20260507022906 51 180 0.0 0.0 0.00 0.00 0.00 78 1010.0
20260507022406 51 180 0.0 0.0 0.00 0.00 0.00 78 1010.0
20260507021906 51 180 0.0 0.0 0.00 0.00 0.00 78 1010.0
20260507021406 51 180 0.0 0.0 0.00 0.00 0.00 78 1009.9
20260507020906 52 180 0.0 0.0 0.00 0.00 0.00 78 1010.0
20260507020405 52 180 0.0 0.0 0.00 0.00 0.00 78 1009.9
20260507015906 52 180 0.0 0.0 0.00 0.00 0.00 78 1009.9
20260507015406 52 180 0.0 0.0 0.00 0.00 0.00 78 1009.7
20260507014906 52 180 0.0 0.0 0.00 0.00 0.00 78 1009.7
20260507014405 52 180 0.0 0.0 0.00 0.00 0.00 78 1009.5
20260507013905 52 202 0.0 0.0 0.00 0.00 0.00 78 1009.5
20260507013406 52 202 0.0 0.0 0.00 0.00 0.00 78 1009.7
20260507012906 52 202 0.0 0.0 0.00 0.00 0.00 78 1009.5
20260507012406 52 202 0.0 0.0 0.00 0.00 0.00 79 1009.4
20260507011906 52 202 0.0 0.0 0.00 0.00 0.00 79 1009.4
20260507011405 52 202 0.0 0.0 0.00 0.00 0.00 78 1009.4
20260507010906 52 202 0.0 0.0 0.00 0.00 0.00 78 1009.2
20260507010405 53 180 0.0 0.0 0.00 0.00 0.00 78 1009.2
20260507005905 53 180 0.0 0.0 0.00 0.00 0.00 78 1009.2
20260507005406 53 180 0.0 0.0 0.00 0.00 0.00 78 1009.4
20260507004905 53 180 0.0 0.0 0.00 0.00 0.00 78 1009.2
20260507004406 53 180 0.0 0.0 0.00 0.00 0.00 78 1009.2
20260507003905 53 180 0.0 0.0 0.00 0.00 0.00 78 1009.0
20260507003405 53 180 0.0 0.0 0.00 0.00 0.00 78 1009.0
20260507002905 53 180 0.0 0.0 0.00 0.00 0.00 78 1009.0
20260507002405 53 180 0.0 0.0 0.00 0.00 0.00 78 1009.0
20260507001905 53 180 0.0 0.0 0.00 0.00 0.00 78 1009.0
20260507001405 53 202 0.0 0.0 0.00 0.00 0.00 78 1009.0
20260507000905 54 202 0.0 0.0 0.00 0.00 0.00 78 1009.0
20260507000406 54 225 0.0 0.0 0.00 0.00 0.00 78 1008.9
20260506235905 54 225 0.0 0.0 0.00 0.00 0.00 78 1008.9
20260506235406 54 180 0.0 0.0 0.00 0.00 0.00 78 1008.7
20260506234905 54 180 0.0 0.0 0.00 0.00 0.00 78 1008.9
20260506234405 54 180 0.0 0.0 0.00 0.00 0.00 78 1008.9
20260506233905 54 180 0.0 0.0 0.00 0.00 0.00 78 1008.7
20260506233405 54 180 0.0 0.0 0.00 0.00 0.00 78 1008.7
20260506232905 54 180 0.0 0.0 0.00 0.00 0.00 78 1008.7
20260506232405 54 180 0.0 0.0 0.00 0.00 0.00 78 1008.7
20260506231905 54 180 0.0 0.0 0.00 0.00 0.00 78 1008.7
20260506231405 54 180 0.0 0.0 0.00 0.00 0.00 78 1008.5
20260506230905 54 180 0.0 0.0 0.00 0.00 0.00 78 1008.7
20260506230405 54 180 0.0 0.0 0.00 0.00 0.00 78 1008.7
20260506225905 54 180 0.0 0.0 0.00 0.00 0.00 78 1008.7
20260506225405 54 180 0.0 0.0 0.00 0.00 0.00 78 1008.5
20260506224905 54 180 0.0 0.0 0.00 0.00 0.00 77 1008.5
20260506224405 54 180 0.0 0.0 0.00 0.00 0.00 77 1008.5
20260506223905 55 180 0.0 0.0 0.00 0.00 0.00 77 1008.5
20260506223405 55 180 0.0 0.0 0.00 0.00 0.00 77 1008.5
20260506222905 55 180 0.0 0.0 0.00 0.00 0.00 77 1008.4
20260506222405 55 180 0.0 0.0 0.00 0.00 0.00 77 1008.2
20260506221906 55 180 0.0 0.0 0.00 0.00 0.00 77 1008.2
20260506221405 55 180 0.0 0.0 0.00 0.00 0.00 77 1008.2
20260506220905 55 180 0.0 0.0 0.00 0.00 0.00 77 1008.2
20260506220405 55 180 0.0 0.0 0.00 0.00 0.00 77 1008.2
20260506215905 55 180 0.0 0.0 0.00 0.00 0.00 77 1008.0
20260506215405 55 180 0.0 0.0 0.00 0.00 0.00 76 1008.0
20260506214905 55 180 0.0 0.0 0.00 0.00 0.00 76 1008.0
20260506214405 55 180 0.0 0.0 0.00 0.00 0.00 76 1008.0
20260506213905 55 180 0.0 0.0 0.00 0.00 0.00 76 1007.9
20260506213405 55 180 0.0 0.0 0.00 0.00 0.00 75 1007.7
20260506212905 55 180 0.0 0.0 0.00 0.00 0.00 75 1007.7
20260506212405 56 315 0.0 0.0 0.00 0.00 0.00 75 1007.7
20260506211905 56 315 0.0 0.0 0.00 0.00 0.00 75 1007.9
20260506211405 56 337 0.0 0.0 0.00 0.00 0.00 76 1007.7
20260506210905 56 337 0.0 0.0 0.00 0.00 0.00 76 1007.7
20260506210405 56 337 0.0 0.0 0.00 0.00 0.00 75 1007.5
20260506205905 56 337 0.0 0.0 0.00 0.00 0.00 75 1007.5
20260506205405 56 337 0.0 0.0 0.00 0.00 0.00 75 1007.5
20260506204905 56 337 0.0 0.0 0.00 0.00 0.00 75 1007.4
20260506204405 57 337 0.0 0.0 0.00 0.00 0.00 75 1007.4
20260506203905 57 337 0.0 0.0 0.00 0.00 0.00 74 1007.2
20260506203405 57 337 0.0 0.0 0.00 0.00 0.00 74 1007.2
20260506202905 57 337 0.0 0.0 0.00 0.00 0.00 74 1007.0
20260506202405 57 337 0.0 0.0 0.00 0.00 0.00 74 1007.2
20260506201905 57 337 0.0 0.0 0.00 0.00 0.00 73 1007.2
20260506201405 57 337 0.0 0.0 0.00 0.00 0.00 73 1007.0
20260506200905 57 337 0.0 0.0 0.00 0.00 0.00 73 1006.9
20260506200405 57 202 0.0 0.0 0.00 0.00 0.00 73 1007.0
20260506195905 58 202 0.0 0.0 0.00 0.00 0.00 73 1006.9
20260506195405 58 202 0.0 0.0 0.00 0.00 0.00 72 1006.9
20260506194905 58 202 0.0 0.0 0.00 0.00 0.00 72 1006.7
20260506194405 58 202 0.0 0.0 0.00 0.00 0.00 71 1006.7
20260506193905 58 202 0.0 0.0 0.00 0.00 0.00 70 1006.7
20260506193405 59 225 0.0 0.0 0.00 0.00 0.00 69 1006.5
20260506192905 59 180 0.0 0.0 0.00 0.00 0.00 69 1006.4
20260506192405 60 180 0.0 0.0 0.00 0.00 0.00 66 1006.4
20260506191905 60 157 0.0 0.0 0.00 0.00 0.00 66 1006.2
20260506191405 60 202 0.0 0.0 0.00 0.00 0.00 66 1005.9
20260506190905 60 202 0.0 0.0 0.00 0.00 0.00 65 1006.0
20260506190405 60 202 0.0 0.0 0.00 0.00 0.00 65 1006.0
20260506185905 60 202 0.0 0.0 0.00 0.00 0.00 64 1006.0
20260506185405 60 202 0.0 0.0 0.00 0.00 0.00 64 1005.7
20260506184905 60 202 0.0 0.0 0.00 0.00 0.00 64 1005.7
20260506184405 60 202 0.0 0.0 0.00 0.00 0.00 64 1005.7
20260506183905 60 180 0.0 0.0 0.00 0.00 0.00 63 1005.5
20260506183405 60 180 0.0 0.0 0.00 0.00 0.00 63 1005.4
20260506182905 61 202 0.0 0.0 0.00 0.00 0.00 63 1005.5
20260506182405 61 202 0.0 0.0 0.00 0.00 0.00 63 1005.5
20260506181905 61 225 0.0 0.0 0.00 0.00 0.00 63 1005.5
20260506181405 61 225 0.0 0.0 0.00 0.00 0.00 62 1005.4
20260506180905 61 225 0.0 0.0 0.00 0.00 0.00 62 1005.4
20260506180405 61 225 0.0 0.0 0.00 0.00 0.00 62 1005.4
20260506175905 62 225 0.0 0.0 0.00 0.00 0.00 61 1005.4
20260506175405 62 202 0.0 0.0 0.00 0.00 0.00 61 1005.2
20260506174905 62 225 0.0 0.0 0.00 0.00 0.00 60 1005.2
20260506174405 62 225 0.0 0.0 0.00 0.00 0.00 60 1005.2
20260506173905 62 180 0.0 0.0 0.00 0.00 0.00 60 1005.0
20260506173405 62 202 0.0 0.0 0.00 0.00 0.00 59 1005.0
20260506172905 63 180 0.0 0.0 0.00 0.00 0.00 59 1004.9
20260506172405 63 202 0.0 0.0 0.00 0.00 0.00 59 1004.7
20260506171905 63 225 0.0 0.0 0.00 0.00 0.00 58 1004.9
20260506171405 63 180 0.0 0.0 0.00 0.00 0.00 58 1004.7
20260506170905 63 180 3.0 0.0 0.00 0.00 0.00 57 1004.7
20260506170405 63 180 0.0 0.0 0.00 0.00 0.00 57 1004.7
20260506165905 64 180 0.0 0.0 0.00 0.00 0.00 57 1004.7
20260506165405 64 180 0.0 0.0 0.00 0.00 0.00 57 1004.7
20260506164905 64 270 0.0 0.0 0.00 0.00 0.00 57 1004.7
20260506164405 64 225 0.0 0.0 0.00 0.00 0.00 57 1004.7
20260506163905 64 135 6.0 0.0 0.00 0.00 0.00 56 1004.7
20260506163405 64 202 0.0 0.0 0.00 0.00 0.00 56 1004.7
20260506162905 65 247 0.0 0.0 0.00 0.00 0.00 56 1004.7
20260506162405 65 270 0.0 0.0 0.00 0.00 0.00 55 1004.7
20260506161905 65 180 0.0 0.0 0.00 0.00 0.00 55 1004.7
20260506161405 66 202 0.0 0.0 0.00 0.00 0.00 55 1004.7
20260506160905 66 225 0.0 0.0 0.00 0.00 0.00 54 1004.7
20260506160405 66 270 0.0 0.0 0.00 0.00 0.00 53 1004.7
20260506155905 66 202 0.0 0.0 0.00 0.00 0.00 53 1004.7
20260506155405 67 180 0.0 0.0 0.00 0.00 0.00 52 1004.7
20260506154905 67 180 3.0 0.0 0.00 0.00 0.00 52 1004.7
20260506154405 67 225 0.0 0.0 0.00 0.00 0.00 52 1004.7
20260506153905 68 202 0.0 0.0 0.00 0.00 0.00 51 1004.5
20260506153405 68 180 0.0 0.0 0.00 0.00 0.00 51 1004.5
20260506152905 68 202 0.0 0.0 0.00 0.00 0.00 50 1004.5
20260506152405 69 225 3.0 0.0 0.00 0.00 0.00 50 1004.5
20260506151905 69 202 0.0 0.0 0.00 0.00 0.00 50 1004.5
20260506151405 69 225 3.0 0.0 0.00 0.00 0.00 50 1004.5
20260506150905 70 202 5.0 0.0 0.00 0.00 0.00 49 1004.5
20260506150405 70 225 0.0 0.0 0.00 0.00 0.00 49 1004.4
20260506145905 71 225 0.0 0.0 0.00 0.00 0.00 49 1004.4
20260506145405 71 225 0.0 0.0 0.00 0.00 0.00 49 1004.4
20260506144905 70 247 6.0 0.0 0.00 0.00 0.00 50 1004.2
20260506144405 70 225 0.0 0.0 0.00 0.00 0.00 49 1004.2
20260506143905 71 180 7.0 0.0 0.00 0.00 0.00 49 1004.4
20260506143405 70 157 0.0 0.0 0.00 0.00 0.00 49 1004.4
20260506142905 70 180 0.0 0.0 0.00 0.00 0.00 49 1004.2
20260506142405 70 202 0.0 0.0 0.00 0.00 0.00 49 1004.2
20260506141905 70 180 0.0 0.0 0.00 0.00 0.00 50 1004.2
20260506141405 70 225 0.0 0.0 0.00 0.00 0.00 51 1004.4
20260506140905 70 202 0.0 0.0 0.00 0.00 0.00 51 1004.4
20260506140405 69 270 0.0 0.0 0.00 0.00 0.00 52 1004.2
20260506135905 70 225 0.0 0.0 0.00 0.00 0.00 52 1004.2
20260506135405 69 180 0.0 0.0 0.00 0.00 0.00 52 1004.4
20260506134905 69 225 0.0 0.0 0.00 0.00 0.00 52 1004.2
20260506134405 69 225 0.0 0.0 0.00 0.00 0.00 54 1004.2
20260506133905 68 180 0.0 0.0 0.00 0.00 0.00 54 1004.4
20260506133405 68 180 0.0 0.0 0.00 0.00 0.00 54 1004.5
20260506132905 68 247 0.0 0.0 0.00 0.00 0.00 55 1004.4
20260506132405 67 180 4.0 0.0 0.00 0.00 0.00 55 1004.2
20260506131905 67 225 6.0 0.0 0.00 0.00 0.00 55 1004.2
20260506131405 67 180 0.0 0.0 0.00 0.00 0.00 56 1004.5
20260506130905 66 180 0.0 0.0 0.00 0.00 0.00 56 1004.5
20260506130405 66 225 5.0 0.0 0.00 0.00 0.00 57 1004.7
20260506125905 66 225 0.0 0.0 0.00 0.00 0.00 57 1004.7
20260506125405 66 180 0.0 0.0 0.00 0.00 0.00 57 1004.5
20260506124905 66 247 0.0 0.0 0.00 0.00 0.00 58 1004.5
20260506124405 66 225 3.0 0.0 0.00 0.00 0.00 58 1004.7
20260506123905 66 225 0.0 0.0 0.00 0.00 0.00 59 1004.5
20260506123405 66 247 0.0 0.0 0.00 0.00 0.00 58 1004.7
20260506122905 66 247 5.0 0.0 0.00 0.00 0.00 58 1004.7
20260506122405 66 180 2.0 0.0 0.00 0.00 0.00 58 1004.7
20260506121905 67 202 4.0 0.0 0.00 0.00 0.00 58 1004.5
20260506121405 67 157 0.0 0.0 0.00 0.00 0.00 58 1004.7
20260506120905 67 225 0.0 0.0 0.00 0.00 0.00 58 1004.7
20260506120405 67 202 0.0 0.0 0.00 0.00 0.00 58 1004.7
20260506115905 67 225 0.0 0.0 0.00 0.00 0.00 58 1004.7
20260506115405 67 225 6.0 0.0 0.00 0.00 0.00 59 1004.7
20260506114905 67 180 0.0 0.0 0.00 0.00 0.00 59 1004.7
20260506114405 67 202 0.0 0.0 0.00 0.00 0.00 59 1004.7
20260506113905 66 180 0.0 0.0 0.00 0.00 0.00 61 1004.9
20260506113405 66 180 3.0 0.0 0.00 0.00 0.00 61 1004.9